DW6368 Weather Reports


time (UTC)temp
C
wind
direction
speed
KPH
gust
KPH
rain 1hr
cm
rain 24hr
cm
rain mn
cm
humidity
%
barometer
mb
20260508002803 24 211 3.2 14.5 0.00 0.00 0.00 66 1012.4
20260508001824 24 194 3.2 9.7 0.00 0.00 0.00 66 1012.4
20260507235802 24 219 4.8 16.1 0.00 0.00 0.00 65 1012.5
20260507234803 25 225 4.8 16.1 0.00 0.00 0.00 66 1012.6
20260507232824 24 202 4.8 14.5 0.00 0.00 0.00 67 1012.7
20260507231802 24 222 6.4 16.1 0.00 0.00 0.00 67 1012.7
20260507225803 24 225 4.8 16.1 0.00 0.00 0.00 65 1012.7
20260507224803 24 226 8.0 17.7 0.00 0.00 0.00 66 1012.7
20260507222802 24 191 3.2 14.5 0.00 0.00 0.00 67 1013.2
20260507221803 23 225 4.8 16.1 0.00 0.00 0.00 69 1013.2
20260507215803 23 222 4.8 20.9 0.00 0.00 0.00 68 1013.4
20260507214802 23 234 4.8 19.3 0.00 0.00 0.00 69 1013.5
20260507212823 23 191 3.2 16.1 0.00 0.00 0.00 70 1013.6
20260507211803 23 215 6.4 11.3 0.00 0.00 0.00 69 1013.8
20260507205824 22 217 4.8 16.1 0.00 0.00 0.00 71 1014.2
20260507204823 22 227 6.4 19.3 0.00 0.00 0.00 70 1014.1
20260507202803 22 221 3.2 16.1 0.00 0.00 0.00 71 1014.4
20260507201802 22 220 4.8 17.7 0.00 0.00 0.00 72 1014.4
20260507195803 22 211 6.4 14.5 0.00 0.00 0.00 72 1014.6
20260507194802 22 223 4.8 17.7 0.00 0.00 0.00 71 1014.7
20260507192803 23 224 6.4 11.3 0.00 0.00 0.00 71 1014.8
20260507191845 23 203 3.2 11.3 0.00 0.00 0.00 71 1015.1
20260507185802 22 216 4.8 14.5 0.00 0.00 0.00 73 1015.1
20260507184803 22 233 3.2 14.5 0.00 0.00 0.00 72 1015.2
20260507182823 22 239 3.2 9.7 0.00 0.00 0.00 72 1015.3
20260507181803 22 214 4.8 11.3 0.00 0.00 0.00 72 1015.3
20260507175802 22 223 3.2 11.3 0.00 0.00 0.00 74 1015.3
20260507172803 21 177 3.2 9.7 0.00 0.00 0.00 74 1015.5
20260507171803 21 245 4.8 11.3 0.00 0.00 0.00 73 1015.4
20260507165802 21 240 4.8 14.5 0.00 0.00 0.00 72 1015.5
20260507164803 22 212 4.8 11.3 0.00 0.00 0.00 72 1015.4
20260507162803 21 245 3.2 8.0 0.00 0.00 0.00 74 1015.5
20260507161803 21 209 1.6 6.4 0.00 0.00 0.00 75 1015.5
20260507155803 20 77 4.8 8.0 0.00 0.00 0.00 77 1015.6
20260507154802 20 212 1.6 8.0 0.00 0.00 0.00 79 1015.7
20260507152803 18 154 3.2 6.4 0.00 0.00 0.00 83 1015.7
20260507151823 18 55 1.6 6.4 0.00 0.00 0.00 86 1015.7
20260507145803 17 90 1.6 3.2 0.00 0.00 0.00 92 1015.8
20260507144803 16 59 1.6 3.2 0.00 0.00 0.00 96 1015.8
20260507142824 15 9 1.6 3.2 0.00 0.00 0.00 100 1015.5
20260507141824 14 320 0.0 1.6 0.00 0.00 0.00 100 1015.4
20260507135803 12 30 1.6 1.6 0.00 0.00 0.00 99 1015.3
20260507134803 12 43 0.0 1.6 0.00 0.00 0.00 98 1015.3
20260507132803 12 43 0.0 1.6 0.00 0.00 0.00 97 1015.1
20260507131803 12 52 0.0 1.6 0.00 0.00 0.00 97 1015.1
20260507125845 12 23 0.0 1.6 0.00 0.00 0.00 97 1014.8
20260507124824 12 34 0.0 1.6 0.00 0.00 0.00 97 1014.8
20260507122803 12 178 0.0 1.6 0.00 0.00 0.00 96 1014.9
20260507121824 12 51 0.0 1.6 0.00 0.00 0.00 96 1014.8
20260507115802 12 17 0.0 1.6 0.00 0.00 0.00 96 1014.9
20260507114802 12 30 0.0 1.6 0.00 0.00 0.00 96 1014.9
20260507112802 12 265 0.0 1.6 0.00 0.00 0.00 96 1015.0
20260507111824 12 45 1.6 1.6 0.00 0.00 0.00 96 1015.0
20260507105824 12 9 0.0 0.0 0.00 0.00 0.00 95 1015.2
20260507104803 12 265 0.0 1.6 0.00 0.00 0.00 95 1015.2
20260507102803 12 51 0.0 1.6 0.00 0.00 0.00 95 1015.3
20260507101845 13 231 0.0 1.6 0.00 0.00 0.00 95 1015.3
20260507095803 13 32 0.0 1.6 0.00 0.00 0.00 94 1015.3
20260507094803 13 13 0.0 1.6 0.00 0.00 0.00 94 1015.4
20260507092803 13 355 0.0 1.6 0.00 0.00 0.00 94 1015.5
20260507091803 13 14 0.0 1.6 0.00 0.00 0.00 94 1015.7
20260507085802 13 9 0.0 1.6 0.00 0.00 0.00 93 1015.8
20260507084803 13 41 0.0 1.6 0.00 0.00 0.00 93 1015.8
20260507082823 14 139 0.0 1.6 0.00 0.00 0.00 93 1016.0
20260507081803 14 51 0.0 1.6 0.00 0.00 0.00 92 1016.1
20260507075824 14 16 0.0 3.2 0.00 0.30 0.00 92 1016.2
20260507074803 14 335 0.0 3.2 0.00 0.00 0.00 91 1016.2
20260507072803 15 26 0.0 3.2 0.00 0.00 0.00 90 1016.3
20260507071803 15 349 0.0 3.2 0.00 0.00 0.00 89 1016.3
20260507065803 15 13 0.0 1.6 0.00 0.00 0.00 88 1016.4
20260507064803 15 18 0.0 1.6 0.00 0.00 0.00 88 1016.3
20260507062803 15 322 0.0 4.8 0.00 0.00 0.00 88 1016.3
20260507061802 15 320 1.6 6.4 0.00 0.00 0.00 88 1016.4
20260507055803 15 46 1.6 3.2 0.00 0.00 0.00 86 1016.5
20260507054803 16 14 0.0 1.6 0.00 0.00 0.00 86 1016.5
20260507052803 16 5 1.6 3.2 0.00 0.00 0.00 84 1016.4
20260507051802 16 38 1.6 6.4 0.00 0.00 0.00 84 1016.5
20260507045824 16 302 3.2 4.8 0.00 0.00 0.00 83 1016.4
20260507044803 16 325 1.6 6.4 0.00 0.00 0.00 84 1016.4
20260507042803 17 359 1.6 8.0 0.00 0.00 0.00 83 1016.3
20260507041802 17 308 3.2 8.0 0.00 0.00 0.00 83 1016.3
20260507035802 17 307 1.6 6.4 0.00 0.00 0.00 79 1016.1
20260507034803 17 307 3.2 8.0 0.00 0.00 0.00 77 1016.0
20260507032803 17 308 4.8 8.0 0.00 0.00 0.00 75 1015.8
20260507031803 17 317 1.6 8.0 0.00 0.00 0.00 75 1015.6
20260507025802 18 301 6.4 16.1 0.00 0.00 0.00 73 1015.5
20260507024803 18 297 8.0 16.1 0.00 0.00 0.00 74 1015.4
20260507015803 20 283 8.0 16.1 0.00 0.00 0.00 66 1014.9
20260507014802 21 313 4.8 14.5 0.00 0.00 0.00 65 1014.9
20260507012803 21 301 6.4 17.7 0.00 0.00 0.00 66 1014.7
20260507011824 21 283 8.0 19.3 0.00 0.00 0.00 66 1014.6
20260507005803 21 285 6.4 17.7 0.00 0.00 0.00 65 1014.5
20260507004802 22 303 11.3 20.9 0.00 0.00 0.00 63 1014.5